Iron Mountain, MI

2:05 AM CDT on July 29, 2016 (GMT -0500)
Ford

Weather History for KIMT - October, 2012

Change the Weather History Date:

Sunday, October 21, 2012

  Actual Average Record
Temperature  
Mean Temperature 44 °F -  
Max Temperature 61 °F 54 °F 80 °F (1953)
Min Temperature 28 °F 33 °F 18 °F (1960)
Degree Days  
Heating Degree Days 20    
Moisture  
Dew Point 33 °F    
Average Humidity 87    
Maximum Humidity 100    
Minimum Humidity 44    
Precipitation  
Precipitation 0.00 in - - ()
Sea Level Pressure  
Sea Level Pressure 29.92 in    
Wind  
Wind Speed 1 mph (SSE)    
Max Wind Speed 10 mph    
Max Gust Speed -    
Visibility 4 miles    
Events Fog    
Averages and records for this station are not official NWS values.
T = Trace of Precipitation, MM = Missing Value Source: NWS Daily Summary

Daily Weather History Graph

Daily Weather History Graph

Search for Another Location

Airport or City:

Trip Planner

Search our weather history database for the weather conditions in past years. The results will help you decide how hot, cold, wet, or windy it might be!

Date:

Astronomy

Oct. 21, 2012 Rise Set
Actual Time 7:17 AM CDT 5:55 PM CDT
Civil Twilight 6:47 AM CDT 6:25 PM CDT
Nautical Twilight 6:12 AM CDT 7:00 PM CDT
Astronomical Twilight 5:38 AM CDT 7:34 PM CDT
Moon 1:44 PM CDT (10/21) 11:44 PM CDT (10/21)
Length of Visible Light 11h 38m
Length of Day
10h 37m
Waxing Crescent, 45% of the Moon is Illuminated
Oct 21
Waxing Crescent
Oct 21
First Quarter
Oct 29
Full
Nov 6
Last Quarter
Nov 13
New

Hourly Weather History & Observations

Time (CDT) Temp. Dew Point Humidity Pressure Visibility Wind Dir Wind Speed Gust Speed Precip Events Conditions
12:38 AM 33.8 °F 33.8 °F 100% 29.86 in 1.8 mi Calm Calm - N/A   Clear
12:54 AM 35.1 °F 35.1 °F 100% 29.89 in 0.8 mi Calm Calm - N/A   Clear
12:59 AM 33.8 °F 33.8 °F 100% 29.86 in 0.2 mi Calm Calm - N/A Fog Fog
1:12 AM 33.8 °F 32.0 °F 93% 29.86 in 1.0 mi Calm Calm - N/A   Mist
1:15 AM 35.6 °F 33.8 °F 93% 29.86 in 2.0 mi Calm Calm - N/A   Partly Cloudy
1:28 AM 33.8 °F 30.2 °F 87% 29.87 in 1.2 mi Calm Calm - N/A   Partly Cloudy
1:37 AM 33.8 °F 32.0 °F 93% 29.87 in 1.0 mi Calm Calm - N/A   Mist
1:43 AM 33.8 °F 33.8 °F 100% 29.87 in 4.0 mi Calm Calm - N/A   Mostly Cloudy
1:51 AM 32.0 °F 30.2 °F 93% 29.87 in 1.5 mi Calm Calm - N/A   Mostly Cloudy
1:54 AM 33.1 °F 32.0 °F 96% 29.90 in 1.2 mi Calm Calm - N/A   Mostly Cloudy
2:07 AM 33.8 °F 32.0 °F 93% 29.88 in 1.5 mi Calm Calm - N/A   Scattered Clouds
2:11 AM 32.0 °F 32.0 °F 100% 29.88 in 0.8 mi Calm Calm - N/A   Mist
2:43 AM 33.8 °F 32.0 °F 93% 29.89 in 1.0 mi Calm Calm - N/A   Clear
2:54 AM 33.1 °F 32.0 °F 96% 29.92 in 2.5 mi Calm Calm - N/A   Clear
3:01 AM 33.8 °F 30.2 °F 87% 29.89 in 7.0 mi Calm Calm - N/A   Clear
3:12 AM 33.8 °F 30.2 °F 87% 29.89 in 1.8 mi Calm Calm - N/A   Clear
3:21 AM 33.8 °F 30.2 °F 87% 29.90 in 0.8 mi Calm Calm - N/A   Clear
3:25 AM 33.8 °F 30.2 °F 87% 29.90 in 3.0 mi Calm Calm - N/A   Clear
3:33 AM 30.2 °F 30.2 °F 100% 29.89 in 2.5 mi Calm Calm - N/A   Partly Cloudy
3:35 AM 32.0 °F 30.2 °F 93% 29.90 in 1.0 mi Calm Calm - N/A   Mist
3:42 AM 32.0 °F 30.2 °F 93% 29.89 in 0.5 mi Calm Calm - N/A Fog Fog
3:47 AM 32.0 °F 30.2 °F 93% 29.89 in 1.0 mi Calm Calm - N/A   Mist
3:54 AM 33.1 °F 32.0 °F 96% 29.92 in 0.8 mi Calm Calm - N/A   Mist
4:06 AM 32.0 °F 30.2 °F 93% 29.89 in 0.2 mi Calm Calm - N/A Fog Fog
4:16 AM 32.0 °F 30.2 °F 93% 29.90 in 0.5 mi Calm Calm - N/A Fog Fog
4:31 AM 32.0 °F 30.2 °F 93% 29.90 in 1.0 mi Calm Calm - N/A   Mist
4:54 AM 30.0 °F 28.9 °F 96% 29.94 in 2.0 mi Calm Calm - N/A   Scattered Clouds
4:57 AM 28.4 °F 28.4 °F 100% 29.91 in 5.0 mi Calm Calm - N/A   Mostly Cloudy
5:11 AM 30.2 °F 28.4 °F 93% 29.91 in 6.0 mi Calm Calm - N/A   Partly Cloudy
5:22 AM 30.2 °F 30.2 °F 100% 29.91 in 1.5 mi Calm Calm - N/A   Partly Cloudy
5:25 AM 30.2 °F 30.2 °F 100% 29.91 in 0.8 mi Calm Calm - N/A   Mist
5:50 AM 30.2 °F 28.4 °F 93% 29.92 in 1.5 mi Calm Calm - N/A   Overcast
5:54 AM 30.0 °F 28.9 °F 96% 29.96 in 1.8 mi Calm Calm - N/A   Mostly Cloudy
5:57 AM 30.2 °F 28.4 °F 93% 29.93 in 3.0 mi Calm Calm - N/A   Mostly Cloudy
6:16 AM 30.2 °F 28.4 °F 93% 29.93 in 1.8 mi Calm Calm - N/A   Mostly Cloudy
6:27 AM 30.2 °F 28.4 °F 93% 29.93 in 0.2 mi Calm Calm - N/A Fog Light Freezing Fog
6:50 AM 28.4 °F 28.4 °F 100% 29.93 in 0.8 mi Calm Calm - N/A   Mist
6:54 AM 30.0 °F 28.9 °F 96% 29.97 in 0.5 mi Calm Calm - N/A Fog Light Freezing Fog
7:07 AM 30.2 °F 28.4 °F 93% 29.93 in 2.5 mi Calm Calm - N/A   Overcast
7:14 AM 30.2 °F 28.4 °F 93% 29.93 in 10.0 mi Calm Calm - N/A   Mostly Cloudy
7:24 AM 28.4 °F 26.6 °F 93% 29.93 in 1.8 mi Calm Calm - N/A   Mostly Cloudy
7:40 AM 28.4 °F 28.4 °F 100% 29.94 in 2.5 mi Calm Calm - N/A   Scattered Clouds
7:43 AM 28.4 °F 28.4 °F 100% 29.94 in 5.0 mi Calm Calm - N/A   Mostly Cloudy
7:54 AM 30.0 °F 28.0 °F 92% 29.99 in 2.5 mi Calm Calm - N/A   Mostly Cloudy
7:56 AM 30.2 °F 28.4 °F 93% 29.95 in 1.0 mi Calm Calm - N/A   Mist
8:06 AM 32.0 °F 30.2 °F 93% 29.95 in 3.0 mi Calm Calm - N/A   Scattered Clouds
8:54 AM 37.9 °F 36.0 °F 93% 30.00 in 9.0 mi Calm Calm - N/A   Clear
9:54 AM 46.0 °F 39.9 °F 79% 29.99 in 10.0 mi Calm Calm - N/A   Clear
10:54 AM 54.0 °F 41.0 °F 62% 29.99 in 10.0 mi Variable 5.8 mph - N/A   Clear
11:54 AM 55.0 °F 39.0 °F 55% 29.98 in 10.0 mi SSE 5.8 mph - N/A   Partly Cloudy
1:54 PM 60.1 °F 39.0 °F 46% 29.96 in 10.0 mi South 10.4 mph - N/A   Clear
2:54 PM 61.0 °F 39.0 °F 44% 29.96 in 10.0 mi South 9.2 mph - N/A   Clear
3:54 PM 60.1 °F 39.0 °F 46% 29.96 in 10.0 mi SSE 8.1 mph - N/A   Clear
4:54 PM 57.9 °F 39.9 °F 51% 29.96 in 10.0 mi SSE 6.9 mph - N/A   Clear
5:54 PM 54.0 °F 41.0 °F 62% 29.96 in 10.0 mi SSE 4.6 mph - N/A   Clear
6:54 PM 53.1 °F 39.9 °F 61% 29.96 in 10.0 mi SE 4.6 mph - N/A   Clear
7:54 PM 51.1 °F 39.9 °F 66% 29.98 in 10.0 mi SSE 3.5 mph - N/A   Clear
8:54 PM 51.1 °F 41.0 °F 68% 29.97 in 10.0 mi SE 4.6 mph - N/A   Overcast
9:54 PM 50.0 °F 42.1 °F 74% 29.98 in 10.0 mi SSE 5.8 mph - N/A   Overcast
10:54 PM 50.0 °F 43.0 °F 77% 29.99 in 10.0 mi Calm Calm - N/A   Overcast
11:54 PM 50.0 °F 44.1 °F 80% 29.99 in 10.0 mi SSE 4.6 mph - N/A   Overcast